sat.trackr.live / text

‹ back to catalog

STARLINK-4555

NORAD 53572 · 2022-101AX

PAYLOAD ACTIVE UNKNOWN

§ Identity

Operator
Country
US
Launch date
2022-08-19
Launch site
AFETR
Launch vehicle
Mass (kg)
RCS (m²)

Purposes: comms

External: N2YO · Heavens-Above · Gunter

§ Orbital elements

Epoch: 2026-09-19T13:59:20.373216Z

Period
93.85 min
Inclination
53.1591°
Eccentricity
0.0001254
Mean motion
15.34387165 rev/d
Perigee alt
461.9 km
Apogee alt
463.6 km
Semi-major
6,840.9 km
B*
-1.1106e-5
RAAN
247.8074°
Arg perigee
82.2094°
Mean anomaly
277.9051°
Rev number
22,593

§ Raw data

STARLINK-45551 53572U 22101AX  26262.58287469 -.00000751  00000+0 -11106-4 0  99922 53572  53.1591 247.8074 0001254  82.2094 277.9051 15.34387165225932

JSON: /api/v1/satellites/53572 · /tle

For live sub-satellite position, see the globe view (requires WebGL).

§ Visibility from observer

Set your observer location to see the next 7 days of passes ≥ 10°. The values pass through the URL so the page stays shareable.

No JS? Fill the form by hand. The geolocation button needs JavaScript.